Wind_Speed
11 11 12 13 13 12 13 14 15 16 16 17 17 17 18 19 20 21 21 22 22 21 21 21 21 21 20 20 19 20 19 19 19 19 19 20 21 21 21 21 21 22 22 22
11 12 13 14 14 14 13 14 15 16 16 16 17 17 18 19 20 21 22 22 21 21 21 21 21 20 20 20 20 19 19 19 19 19 20 20 21 22 22 22 22 22 23 23
13 12 13 14 14 14 14 15 16 17 17 18 18 18 19 20 20 20 21 21 21 21 20 21 20 20 20 20 20 19 19 19 19 20 20 21 22 22 22 21 21 22 23 23
15 14 15 15 15 14 14 15 16 17 17 18 19 20 21 21 20 20 20 21 21 21 20 20 19 19 20 20 20 20 20 20 20 20 21 21 21 21 20 20 21 21 21 22
16 16 16 15 15 15 15 15 17 18 19 19 20 21 21 21 21 21 21 21 21 21 21 20 19 20 20 20 20 21 20 20 20 20 20 20 20 20 20 20 21 21 21 20
17 18 18 16 16 16 16 17 18 19 20 21 21 22 22 22 21 21 21 21 21 21 21 20 20 20 20 20 20 19 19 19 19 20 20 20 20 20 20 20 20 19 20 20
18 20 19 18 17 17 17 18 19 20 20 21 22 22 23 22 22 21 21 21 21 21 21 20 20 20 19 19 18 18 18 19 19 19 20 20 19 19 19 18 18 19 19 19
19 20 19 19 18 18 18 19 19 20 21 21 22 22 21 21 22 21 21 21 21 20 20 19 19 19 18 19 18 18 18 18 18 19 19 19 19 19 18 17 18 18 19 19
19 19 19 19 19 19 20 20 20 21 21 21 22 21 21 21 21 21 21 21 20 20 19 18 18 18 19 19 19 18 18 18 18 18 18 18 18 17 17 17 17 18 18 18
20 20 20 20 20 20 21 21 21 21 21 22 22 21 21 21 21 20 20 20 20 19 18 18 18 18 19 19 18 17 17 17 17 18 17 17 16 16 16 17 17 18 17 17
21 20 21 21 21 21 22 22 22 22 23 23 23 23 22 22 21 20 19 19 19 19 19 19 19 18 18 17 16 16 16 16 16 16 16 15 15 15 16 17 17 17 17 16
22 21 22 22 22 21 22 22 23 23 23 24 24 23 22 22 21 20 20 20 20 20 19 19 18 17 17 17 16 16 16 15 15 16 15 14 13 14 15 15 16 16 16 16
23 22 22 22 22 23 23 24 24 24 24 24 24 23 22 22 22 21 20 20 19 19 19 18 18 17 17 16 15 15 15 14 14 14 14 13 13 13 14 14 14 15 16 16
24 24 23 23 23 23 24 24 24 24 23 23 22 22 22 22 22 21 21 20 19 18 18 18 17 17 16 15 15 14 14 13 13 13 13 12 12 13 14 14 14 15 15 16
24 24 24 24 23 23 24 24 24 23 22 22 22 22 22 22 22 21 21 20 19 19 19 18 17 16 16 15 14 13 13 13 13 12 11 11 13 13 13 13 14 14 15 16
24 24 24 24 24 24 23 23 23 23 22 22 22 22 22 22 22 21 20 19 19 19 18 18 17 15 14 14 13 13 13 13 12 11 11 12 13 13 12 13 14 14 14 15
24 24 24 24 23 23 23 22 22 22 22 22 22 22 22 22 21 21 20 19 19 18 17 17 16 15 13 13 13 13 13 12 11 11 12 12 13 12 12 13 13 14 14 15
25 25 24 24 23 22 22 21 21 21 21 21 21 22 22 22 21 20 19 18 18 17 16 15 14 13 12 12 12 13 13 12 12 12 12 12 12 12 12 13 13 14 14 15
24 25 25 24 23 22 22 22 21 21 22 22 22 22 22 21 20 19 19 19 18 17 16 15 14 13 12 12 13 13 12 12 12 12 12 12 12 12 12 13 13 14 15 16
23 23 23 23 22 22 22 22 22 22 22 22 22 22 21 21 20 20 20 19 18 17 15 14 13 13 12 12 12 12 12 12 12 12 12 12 12 12 12 13 14 14 14 16
24 23 22 22 22 23 23 23 23 22 22 22 22 22 21 21 20 20 20 19 17 15 14 14 13 13 13 12 11 12 12 12 12 12 12 12 12 12 13 14 14 14 15 16
24 24 23 23 24 24 24 23 23 23 23 23 23 22 22 22 21 20 19 18 17 16 15 14 14 13 13 13 12 12 12 12 12 11 11 12 13 13 13 14 14 14 15 16
25 25 25 25 25 25 24 24 24 24 24 23 23 23 23 22 21 20 18 17 17 17 16 15 14 14 14 14 13 13 13 12 12 11 12 12 13 13 13 13 13 14 15 16
25 25 25 25 25 26 25 24 24 24 24 23 23 23 22 22 20 18 18 17 18 17 16 16 15 15 15 15 14 14 13 13 13 12 12 13 13 14 14 13 13 14 14 15
25 26 26 25 25 25 25 25 25 24 23 23 23 23 23 22 21 19 19 18 18 17 17 15 15 14 15 14 14 14 13 13 13 12 12 13 13 13 13 13 13 14 14 15
27 26 26 26 25 25 25 24 24 24 23 22 22 22 22 22 21 20 20 20 18 17 17 16 15 15 15 15 14 14 14 13 12 12 12 13 13 13 13 14 14 14 15 16
26 26 25 25 25 25 25 25 24 23 23 23 22 22 21 21 20 19 19 19 18 17 16 16 15 14 14 14 13 13 13 13 12 12 12 12 13 13 14 14 14 14 16 17
Wind_Direction
292 289 290 295 296 295 295 299 304 312 316 318 316 317 321 324 326 326 327 328 328 327 325 324 325 324 324 323 322 321 321 320 320 319 319 319 320 319 317 316 315 313 310 307
285 284 288 295 297 297 298 300 305 312 316 317 319 318 321 327 328 328 327 327 327 325 324 323 323 323 324 324 324 323 323 322 322 321 322 322 322 321 319 318 318 316 312 308
281 280 288 293 298 298 300 302 305 310 313 315 316 318 322 325 326 326 326 324 323 323 323 323 323 322 322 322 323 323 323 323 323 323 322 323 323 323 322 320 318 318 316 313
283 285 288 296 298 298 301 302 305 308 310 312 314 316 318 320 321 323 322 323 322 321 322 323 323 323 323 324 324 323 323 324 323 324 325 325 326 327 328 326 323 322 320 319
283 285 290 293 299 301 302 303 304 306 307 309 312 314 317 318 319 319 319 321 320 321 321 322 321 322 323 323 323 324 325 326 327 327 328 328 329 329 329 328 327 327 327 327
284 287 292 292 295 299 299 301 304 306 306 307 311 314 316 316 316 317 318 320 319 320 321 320 319 319 321 322 324 325 326 327 329 330 330 330 330 330 331 331 332 333 335 337
284 287 291 293 296 299 300 304 305 306 306 308 312 314 315 315 316 316 318 319 320 319 318 317 318 320 321 323 324 325 327 328 330 332 332 333 334 334 335 337 339 341 341 342
283 286 288 291 293 295 298 301 302 304 306 308 311 313 314 314 314 314 315 318 319 318 317 318 318 319 321 322 324 324 326 328 330 333 335 338 339 339 340 342 344 346 347 347
282 282 283 285 289 293 295 297 299 301 305 308 309 311 311 312 313 314 315 316 317 317 318 319 320 319 321 321 322 323 325 327 329 332 335 338 340 341 343 346 346 347 348 349
277 278 278 282 286 290 293 295 298 301 303 306 308 310 310 310 311 312 313 314 315 316 318 318 319 319 322 322 321 322 324 327 328 331 334 337 341 344 345 346 347 348 349 350
273 275 277 279 283 288 291 294 297 299 302 304 305 307 308 310 310 310 311 311 312 314 314 315 316 317 319 321 321 320 322 324 327 330 333 335 339 343 345 348 349 350 353 354
272 274 276 278 281 285 288 291 294 297 299 301 303 305 307 308 309 308 308 308 309 311 312 314 315 316 318 320 319 319 320 323 326 330 333 334 338 341 345 347 351 354 355 355
271 273 275 277 279 282 285 288 291 294 296 298 300 301 304 306 307 306 306 307 308 309 311 313 313 313 315 317 318 319 321 323 325 329 334 335 338 339 342 346 350 352 354 354
268 271 273 275 277 280 283 287 290 292 293 296 297 299 302 303 304 303 304 305 305 306 310 311 310 308 311 314 315 317 320 323 324 327 332 335 336 336 338 340 345 349 351 352
266 267 270 273 275 278 282 286 288 288 291 294 295 297 300 302 302 300 302 303 303 304 306 307 306 305 306 309 312 313 316 319 321 325 329 331 332 332 334 337 342 344 347 349
265 266 267 272 275 278 282 285 286 288 289 291 293 296 299 301 300 299 300 299 301 303 303 302 301 300 300 303 308 312 314 315 319 324 327 328 329 330 332 335 337 339 341 345
265 267 268 272 275 277 280 283 286 289 291 292 294 296 297 299 297 295 295 297 299 301 301 299 298 295 295 299 304 310 312 314 318 320 323 325 327 330 332 333 336 337 339 344
265 267 269 271 273 276 280 283 286 290 293 294 295 296 296 297 295 293 292 294 297 298 299 296 293 291 290 294 300 304 307 310 313 315 317 320 322 323 326 330 334 335 336 339
267 267 269 272 274 276 278 279 281 285 289 292 294 295 296 296 292 289 289 291 293 294 294 292 289 287 287 291 297 300 304 308 310 312 313 315 318 318 322 326 330 332 335 337
263 264 267 268 271 275 277 279 281 283 287 290 292 292 291 291 288 286 287 289 290 290 290 288 285 286 286 288 291 296 300 303 306 309 311 311 314 317 319 323 327 329 331 333
262 263 264 266 269 272 276 277 279 281 284 286 288 287 286 288 286 284 285 287 288 288 286 284 282 284 285 286 286 290 294 298 300 303 306 308 311 314 317 321 323 324 327 330
262 264 265 264 267 271 273 274 276 279 280 282 284 284 284 284 282 281 284 286 287 286 284 282 281 282 283 284 283 285 290 293 295 298 302 307 311 312 316 319 319 320 324 327
266 267 267 267 269 270 272 273 274 276 278 280 281 282 283 282 281 281 281 283 283 283 282 281 280 282 283 282 281 282 285 287 290 295 300 306 310 312 315 318 319 319 320 323
267 268 269 270 270 270 272 275 277 277 277 277 278 279 280 281 281 280 281 280 278 280 281 280 278 278 280 282 281 282 284 286 289 295 302 306 310 312 313 315 317 317 319 322
266 268 270 271 271 272 274 276 279 280 279 277 277 276 277 278 277 276 277 278 277 279 280 278 278 275 278 281 281 281 282 284 287 292 298 303 307 309 311 313 316 317 319 321
264 266 268 268 270 273 275 276 277 277 277 276 276 276 276 276 276 276 275 274 276 277 277 274 273 273 277 279 278 275 275 277 280 284 290 297 302 307 310 312 315 316 318 321
264 265 266 269 271 272 274 275 276 275 275 274 273 274 273 273 272 270 270 271 273 273 273 272 271 272 274 275 271 267 268 271 275 280 286 292 300 306 309 311 312 315 318 320
Height
5837 5835 5834 5833 5832 5831 5830 5828 5826 5824 5821 5819 5816 5813 5810 5806 5803 5800 5796 5792 5787 5783 5780 5776 5772 5768 5765 5761 5757 5754 5751 5747 5744 5741 5738 5735 5731 5728 5724 5721 5717 5714 5710 5707
5834 5833 5831 5830 5829 5827 5826 5824 5822 5820 5818 5816 5813 5809 5807 5803 5800 5797 5792 5788 5784 5780 5776 5773 5769 5765 5761 5758 5754 5750 5747 5743 5740 5737 5734 5730 5727 5723 5719 5716 5712 5708 5704 5701
5830 5829 5828 5827 5825 5824 5823 5821 5819 5816 5815 5812 5809 5807 5803 5800 5797 5793 5789 5785 5782 5777 5773 5769 5766 5762 5758 5754 5751 5747 5744 5740 5736 5733 5729 5726 5722 5718 5714 5710 5706 5702 5698 5694
5826 5826 5824 5825 5821 5820 5818 5816 5814 5812 5810 5808 5805 5802 5799 5796 5793 5789 5786 5782 5778 5774 5770 5766 5762 5758 5755 5751 5748 5744 5740 5737 5733 5729 5725 5721 5717 5713 5709 5705 5701 5697 5693 5689
5821 5820 5820 5819 5817 5815 5814 5812 5810 5808 5806 5804 5801 5798 5795 5792 5789 5785 5782 5778 5774 5770 5766 5762 5759 5755 5752 5748 5745 5741 5737 5733 5729 5725 5721 5717 5714 5710 5705 5701 5697 5693 5688 5684
5816 5815 5814 5815 5813 5811 5810 5807 5806 5804 5801 5799 5796 5794 5792 5788 5784 5781 5777 5774 5770 5766 5762 5759 5755 5752 5748 5745 5741 5737 5734 5730 5727 5722 5718 5714 5710 5706 5702 5698 5693 5689 5685 5681
5811 5810 5809 5809 5807 5806 5805 5805 5801 5799 5797 5794 5791 5789 5786 5782 5779 5776 5773 5769 5766 5762 5758 5755 5751 5748 5745 5741 5738 5734 5731 5727 5723 5720 5716 5711 5707 5703 5699 5695 5691 5686 5682 5678
5806 5805 5806 5803 5802 5801 5800 5798 5796 5794 5792 5789 5786 5784 5781 5778 5775 5771 5769 5765 5762 5758 5754 5751 5748 5744 5741 5738 5735 5731 5728 5724 5721 5717 5713 5709 5705 5700 5696 5692 5689 5684 5680 5676
5802 5802 5799 5798 5797 5795 5794 5792 5791 5789 5787 5784 5782 5779 5776 5773 5770 5767 5764 5761 5757 5754 5751 5748 5744 5741 5738 5735 5731 5728 5725 5721 5718 5714 5710 5706 5702 5699 5695 5691 5687 5683 5678 5675
5795 5794 5793 5792 5791 5790 5788 5787 5785 5783 5781 5779 5777 5774 5771 5768 5765 5762 5759 5756 5753 5750 5747 5744 5741 5738 5735 5731 5728 5725 5722 5718 5715 5712 5708 5704 5701 5697 5693 5689 5685 5681 5677 5673
5789 5788 5787 5786 5785 5784 5782 5780 5779 5777 5775 5773 5771 5768 5766 5763 5760 5757 5754 5752 5749 5746 5744 5741 5738 5735 5731 5728 5725 5722 5719 5716 5712 5709 5706 5702 5699 5695 5692 5688 5684 5680 5676 5672
5782 5782 5781 5780 5779 5778 5776 5774 5773 5771 5769 5767 5764 5762 5760 5757 5755 5752 5750 5747 5744 5742 5739 5737 5734 5731 5728 5725 5721 5718 5716 5713 5710 5707 5704 5700 5697 5694 5691 5687 5683 5680 5676 5672
5775 5775 5774 5773 5772 5771 5770 5768 5766 5765 5763 5760 5758 5756 5754 5751 5749 5747 5744 5742 5740 5737 5735 5732 5730 5727 5724 5721 5718 5715 5713 5710 5707 5704 5702 5699 5696 5693 5690 5687 5683 5679 5675 5672
5767 5767 5767 5766 5765 5765 5763 5762 5760 5758 5756 5754 5752 5750 5748 5745 5743 5741 5739 5737 5735 5732 5730 5728 5725 5723 5720 5717 5715 5712 5710 5707 5705 5702 5700 5697 5694 5691 5688 5685 5682 5679 5675 5671
5760 5759 5759 5758 5758 5757 5756 5754 5753 5751 5749 5748 5746 5744 5742 5740 5737 5735 5733 5731 5729 5727 5725 5723 5721 5718 5716 5714 5712 5709 5707 5705 5702 5700 5697 5695 5692 5690 5687 5684 5681 5678 5674 5671
5751 5751 5751 5751 5750 5750 5749 5747 5746 5745 5743 5741 5739 5737 5735 5733 5731 5729 5727 5726 5724 5722 5720 5718 5716 5713 5712 5710 5708 5706 5704 5702 5700 5697 5695 5693 5691 5688 5685 5683 5680 5676 5673 5670
5743 5743 5743 5743 5743 5742 5742 5741 5739 5738 5736 5735 5733 5731 5729 5727 5725 5723 5721 5720 5718 5716 5714 5712 5710 5709 5707 5706 5704 5703 5701 5699 5697 5695 5693 5691 5688 5686 5683 5681 5678 5675 5672 5668
5735 5735 5735 5735 5735 5735 5734 5733 5732 5731 5730 5728 5726 5724 5722 5721 5719 5717 5715 5714 5712 5710 5708 5707 5705 5704 5703 5702 5700 5699 5697 5695 5694 5692 5690 5688 5686 5683 5681 5679 5676 5673 5670 5667
5726 5726 5727 5727 5727 5727 5727 5726 5725 5724 5723 5721 5719 5718 5716 5714 5712 5711 5709 5708 5706 5705 5703 5702 5701 5699 5698 5697 5696 5695 5694 5692 5690 5689 5687 5685 5683 5681 5679 5676 5674 5671 5668 5665
5718 5718 5718 5719 5719 5719 5718 5718 5717 5717 5715 5714 5712 5710 5709 5707 5706 5705 5703 5702 5700 5699 5698 5696 5696 5695 5694 5693 5692 5691 5690 5688 5687 5685 5684 5682 5680 5678 5676 5673 5671 5668 5665 5662
5709 5710 5710 5711 5711 5711 5710 5710 5709 5709 5708 5707 5705 5703 5702 5701 5699 5698 5697 5696 5695 5693 5692 5691 5691 5690 5690 5689 5688 5687 5686 5685 5683 5682 5680 5679 5677 5675 5673 5671 5668 5665 5663 5660
5701 5702 5702 5703 5703 5703 5702 5702 5701 5701 5700 5699 5698 5696 5695 5694 5693 5692 5691 5690 5689 5688 5687 5687 5686 5685 5685 5684 5683 5682 5681 5681 5679 5678 5676 5675 5673 5671 5669 5667 5665 5662 5660 5657
5693 5693 5694 5694 5694 5694 5694 5693 5693 5693 5692 5691 5690 5689 5688 5687 5686 5686 5685 5684 5683 5682 5682 5681 5681 5680 5680 5679 5678 5678 5677 5676 5675 5674 5672 5671 5670 5668 5666 5664 5662 5659 5657 5654
5684 5685 5685 5685 5685 5685 5685 5685 5684 5684 5684 5684 5683 5682 5681 5680 5680 5679 5678 5678 5678 5677 5677 5676 5675 5675 5675 5674 5674 5673 5673 5672 5671 5670 5668 5667 5666 5664 5662 5660 5658 5656 5653 5651
5676 5676 5677 5677 5677 5677 5677 5677 5676 5676 5676 5676 5676 5675 5674 5673 5673 5673 5672 5672 5672 5671 5671 5671 5670 5670 5670 5669 5669 5668 5667 5667 5666 5665 5664 5663 5662 5661 5659 5657 5654 5652 5650 5647
5667 5667 5668 5668 5668 5668 5668 5668 5668 5668 5668 5668 5668 5667 5667 5666 5666 5666 5666 5665 5665 5665 5665 5665 5664 5664 5664 5664 5663 5662 5662 5662 5661 5661 5660 5659 5658 5657 5655 5653 5651 5649 5646 5644
5658 5658 5659 5660 5660 5660 5660 5660 5660 5660 5660 5660 5660 5660 5659 5659 5659 5659 5659 5659 5658 5658 5659 5659 5658 5658 5658 5658 5657 5657 5657 5657 5657 5656 5656 5655 5654 5652 5651 5649 5647 5645 5643 5640